20040328,000029,432019,31.750010,-121.323690,14.538,32.955,NaN,NaN
20040328,000059,432049,31.750050,-121.323780,14.518,32.958,NaN,NaN
20040328,000129,432079,31.750080,-121.323810,14.525,32.961,NaN,NaN
20040328,000159,432109,31.750140,-121.323840,14.530,32.958,NaN,NaN
20040328,000229,432139,31.750120,-121.323930,14.534,32.946,NaN,NaN
20040328,000259,432169,31.750140,-121.324030,14.536,32.960,NaN,NaN
20040328,000329,432199,31.750160,-121.324170,14.540,32.961,NaN,NaN
20040328,000359,432229,31.750140,-121.324230,14.559,32.963,NaN,NaN
20040328,000429,432259,31.750150,-121.324260,14.556,32.961,NaN,NaN
20040328,000459,432289,31.750150,-121.324280,14.550,32.959,NaN,NaN
20040328,000529,432318,31.750140,-121.324330,14.542,32.961,NaN,NaN
20040328,000559,432349,31.750090,-121.324370,14.543,32.961,NaN,NaN
20040328,000629,432379,31.750100,-121.324460,14.544,32.961,NaN,NaN
20040328,000659,432409,31.750090,-121.324630,14.537,32.960,NaN,NaN
20040328,000730,432440,31.750100,-121.324810,14.532,32.930,NaN,NaN
20040328,000800,432470,31.750130,-121.324880,14.536,32.960,NaN,NaN
20040328,000830,432500,31.750170,-121.324990,14.539,32.960,NaN,NaN
20040328,000900,432530,31.750270,-121.325040,14.540,32.958,NaN,NaN
20040328,000930,432560,31.750310,-121.325190,14.543,32.960,NaN,NaN
20040328,001000,432590,31.750420,-121.325320,14.545,32.958,NaN,NaN
20040328,001030,432620,31.750490,-121.325440,14.551,32.958,NaN,NaN
20040328,001100,432650,31.750530,-121.325510,14.555,32.954,NaN,NaN
20040328,001130,432680,31.750560,-121.325570,14.555,32.951,NaN,NaN
20040328,001200,432710,31.750580,-121.325570,14.555,32.955,NaN,NaN
20040328,001230,432739,31.750590,-121.325580,14.555,32.957,NaN,NaN
20040328,001300,432770,31.750560,-121.325640,14.555,32.958,NaN,NaN
20040328,001330,432800,31.750560,-121.325770,14.558,32.958,NaN,NaN
20040328,001401,432831,31.750620,-121.325960,14.565,32.962,NaN,NaN
20040328,001430,432860,31.750700,-121.326010,14.565,32.966,NaN,NaN
20040328,001500,432890,31.750780,-121.326100,14.567,32.968,NaN,NaN
20040328,001530,432920,31.750820,-121.326230,14.576,32.969,NaN,NaN
20040328,001600,432950,31.750900,-121.326340,14.595,32.970,NaN,NaN
20040328,001630,432980,31.751000,-121.326440,14.582,32.968,NaN,NaN
20040328,001700,433010,31.751100,-121.326590,14.575,32.967,NaN,NaN
20040328,001730,433040,31.751170,-121.326700,14.562,32.967,NaN,NaN
20040328,001800,433069,31.751210,-121.326790,14.545,32.966,NaN,NaN
20040328,001830,433100,31.751270,-121.326920,14.552,32.966,NaN,NaN
20040328,001900,433130,31.751310,-121.327080,14.553,32.967,NaN,NaN
20040328,001930,433160,31.751360,-121.327140,14.558,32.968,NaN,NaN
20040328,002000,433190,31.751430,-121.327220,14.564,32.967,NaN,NaN
20040328,002030,433220,31.751510,-121.327390,14.583,32.965,NaN,NaN
20040328,002100,433249,31.751650,-121.327550,14.598,32.964,NaN,NaN
20040328,002130,433280,31.751730,-121.327640,14.589,32.962,NaN,NaN
20040328,002200,433310,31.751870,-121.327790,14.568,32.962,NaN,NaN
20040328,002230,433340,31.752000,-121.327950,14.553,32.965,NaN,NaN
20040328,002301,433371,31.752170,-121.328130,14.572,32.966,NaN,NaN
20040328,002330,433400,31.752350,-121.328290,14.582,32.965,NaN,NaN
20040328,002400,433430,31.752470,-121.328410,14.571,32.964,NaN,NaN
20040328,002430,433460,31.752630,-121.328520,14.560,32.966,NaN,NaN
20040328,002500,433490,31.752730,-121.328660,14.566,32.967,NaN,NaN
20040328,002530,433520,31.752800,-121.328740,14.567,32.965,NaN,NaN
20040328,002600,433550,31.752900,-121.328820,14.570,32.957,NaN,NaN
20040328,002630,433579,31.753010,-121.328930,14.574,32.965,NaN,NaN
20040328,002700,433610,31.753110,-121.329080,14.570,32.966,NaN,NaN
20040328,002730,433640,31.753180,-121.329210,14.577,32.965,NaN,NaN
20040328,002800,433670,31.753250,-121.329270,14.580,32.967,NaN,NaN
20040328,002830,433700,31.753240,-121.329310,14.595,32.969,NaN,NaN
20040328,002900,433730,31.753160,-121.329310,14.597,32.969,NaN,NaN
20040328,002930,433759,31.753130,-121.329320,14.588,32.970,NaN,NaN
20040328,003000,433790,31.753120,-121.329410,14.585,32.970,NaN,NaN
20040328,003030,433820,31.753160,-121.329510,14.580,32.970,NaN,NaN
20040328,003100,433850,31.753240,-121.329600,14.580,32.971,NaN,NaN
20040328,003130,433880,31.753260,-121.329700,14.584,32.970,NaN,NaN
20040328,003200,433910,31.753270,-121.329840,14.584,32.971,NaN,NaN
20040328,003230,433940,31.753310,-121.329910,14.584,32.971,NaN,NaN
20040328,003300,433970,31.753320,-121.329930,14.582,32.970,NaN,NaN
20040328,003330,434000,31.753400,-121.329930,14.580,32.969,NaN,NaN
20040328,003400,434030,31.753500,-121.330010,14.560,32.964,NaN,NaN
20040328,003430,434060,31.753580,-121.330160,14.562,32.963,NaN,NaN
20040328,003500,434089,31.753690,-121.330360,14.568,32.961,NaN,NaN
20040328,003530,434120,31.753810,-121.330450,14.572,32.957,NaN,NaN
20040328,003600,434150,31.753900,-121.330460,14.572,32.958,NaN,NaN
20040328,003630,434180,31.753990,-121.330490,14.584,32.960,NaN,NaN
20040328,003700,434210,31.754080,-121.330620,14.578,32.959,NaN,NaN
20040328,003730,434240,31.754210,-121.330760,14.565,32.963,NaN,NaN
20040328,003800,434270,31.754350,-121.330910,14.564,32.966,NaN,NaN
20040328,003830,434300,31.754470,-121.331020,14.564,32.965,NaN,NaN
20040328,003900,434330,31.754520,-121.331120,14.567,32.960,NaN,NaN
20040328,003930,434360,31.754630,-121.331210,14.574,32.958,NaN,NaN
20040328,004000,434390,31.754760,-121.331320,14.579,32.951,NaN,NaN
20040328,004030,434419,31.754890,-121.331390,14.577,32.957,NaN,NaN
20040328,004100,434450,31.755040,-121.331510,14.576,32.961,NaN,NaN
20040328,004131,434481,31.755150,-121.331640,14.583,32.960,NaN,NaN
20040328,004200,434510,31.755230,-121.331790,14.580,32.962,NaN,NaN
20040328,004231,434541,31.755330,-121.331880,14.571,32.966,NaN,NaN
20040328,004301,434571,31.755440,-121.331970,14.570,32.968,NaN,NaN
20040328,004331,434601,31.755600,-121.332050,14.570,32.968,NaN,NaN
20040328,004401,434631,31.755700,-121.332110,14.572,32.968,NaN,NaN
20040328,004431,434661,31.755770,-121.332250,14.575,32.966,NaN,NaN
20040328,004501,434691,31.755880,-121.332350,14.574,32.965,NaN,NaN
20040328,004531,434721,31.755990,-121.332430,14.572,32.962,NaN,NaN
20040328,004600,434750,31.756130,-121.332510,14.581,32.964,NaN,NaN
20040328,004630,434780,31.756230,-121.332640,14.592,32.966,NaN,NaN
20040328,004700,434810,31.756330,-121.332780,14.590,32.967,NaN,NaN
20040328,004730,434840,31.756470,-121.332940,14.578,32.967,NaN,NaN
20040328,004800,434870,31.756590,-121.333050,14.572,32.968,NaN,NaN
20040328,004830,434900,31.756720,-121.333100,14.562,32.968,NaN,NaN
20040328,004900,434929,31.756860,-121.333230,14.559,32.967,NaN,NaN
20040328,004930,434960,31.757050,-121.333380,14.555,32.968,NaN,NaN
20040328,005000,434990,31.757130,-121.333520,14.545,32.963,NaN,NaN
20040328,005030,435020,31.757250,-121.333660,14.540,32.963,NaN,NaN
20040328,005100,435050,31.757460,-121.333810,14.628,32.966,NaN,NaN
20040328,005131,435081,31.757680,-121.334080,14.568,32.962,NaN,NaN
20040328,005201,435111,31.757900,-121.334380,14.559,32.964,NaN,NaN
20040328,005231,435141,31.758110,-121.334630,14.590,32.961,NaN,NaN
20040328,005301,435171,31.758270,-121.334890,14.603,32.956,NaN,NaN
20040328,005331,435201,31.758450,-121.335180,14.558,32.958,NaN,NaN
20040328,005401,435231,31.758650,-121.335520,14.541,32.959,NaN,NaN
20040328,005431,435261,31.758880,-121.335780,14.543,32.958,NaN,NaN
20040328,005501,435291,31.759070,-121.336010,14.547,32.954,NaN,NaN
20040328,005531,435321,31.759250,-121.336250,14.557,32.948,NaN,NaN
20040328,005601,435350,31.759420,-121.336490,14.570,32.957,NaN,NaN
20040328,005631,435381,31.759600,-121.336770,14.572,32.961,NaN,NaN
20040328,005701,435411,31.759780,-121.337060,14.560,32.962,NaN,NaN
20040328,005731,435441,31.759900,-121.337280,14.558,32.962,NaN,NaN
20040328,005801,435471,31.759950,-121.337550,14.557,32.965,NaN,NaN
20040328,005831,435501,31.760070,-121.337770,14.607,32.969,NaN,NaN
20040328,005901,435531,31.760180,-121.337960,14.562,32.963,NaN,NaN
20040328,005931,435561,31.760300,-121.338160,14.534,32.957,NaN,NaN
20040328,010001,435591,31.760440,-121.338360,14.526,32.948,NaN,NaN
20040328,010031,435621,31.760570,-121.338540,14.568,32.945,NaN,NaN
20040328,010101,435651,31.760650,-121.338750,14.537,32.947,NaN,NaN
20040328,010131,435680,31.760700,-121.338920,14.516,32.948,NaN,NaN
20040328,010201,435711,31.760770,-121.339050,14.509,32.948,NaN,NaN
20040328,010231,435741,31.760810,-121.339240,14.500,32.950,NaN,NaN
20040328,010301,435771,31.760880,-121.339410,14.489,32.949,NaN,NaN
20040328,010331,435801,31.760880,-121.339510,14.449,32.947,NaN,NaN
20040328,010401,435831,31.760900,-121.339650,14.430,32.945,NaN,NaN
20040328,010431,435860,31.760940,-121.339790,14.568,32.947,NaN,NaN
20040328,010501,435891,31.760900,-121.339920,14.395,32.953,NaN,NaN
20040328,010531,435921,31.760900,-121.340050,14.376,32.957,NaN,NaN
20040328,010601,435951,31.760990,-121.340220,14.441,32.945,NaN,NaN
20040328,010631,435981,31.761140,-121.340430,14.355,32.949,NaN,NaN
20040328,010701,436011,31.761220,-121.340620,14.344,32.952,NaN,NaN
20040328,010731,436041,31.761300,-121.340740,14.338,32.951,NaN,NaN
20040328,010801,436071,31.761390,-121.340890,14.322,32.954,NaN,NaN
20040328,010831,436101,31.761490,-121.341060,14.317,32.935,NaN,NaN
20040328,010901,436131,31.761590,-121.341250,14.321,32.956,NaN,NaN
20040328,010931,436161,31.761740,-121.341420,14.381,32.947,NaN,NaN
20040328,011001,436190,31.761890,-121.341590,14.335,32.953,NaN,NaN
20040328,011031,436221,31.762030,-121.341810,14.326,32.953,NaN,NaN
20040328,011101,436251,31.762150,-121.341990,14.354,32.951,NaN,NaN
20040328,011131,436281,31.762180,-121.342150,14.321,32.949,NaN,NaN
20040328,011201,436311,31.762300,-121.342330,14.299,32.952,NaN,NaN
20040328,011231,436341,31.762490,-121.342540,14.296,32.954,NaN,NaN
20040328,011301,436370,31.762670,-121.342770,14.295,32.954,NaN,NaN
20040328,011331,436401,31.762760,-121.342890,14.299,32.953,NaN,NaN
20040328,011401,436431,31.762830,-121.342930,14.310,32.952,NaN,NaN
20040328,011431,436461,31.762900,-121.343090,14.389,32.962,NaN,NaN
20040328,011501,436491,31.763050,-121.343290,14.334,32.949,NaN,NaN
20040328,011531,436521,31.763200,-121.343550,14.311,32.951,NaN,NaN
20040328,011601,436551,31.763350,-121.343770,14.372,32.949,NaN,NaN
20040328,011631,436581,31.763480,-121.343910,14.319,32.947,NaN,NaN
20040328,011701,436611,31.763570,-121.344130,14.294,32.949,NaN,NaN
20040328,011731,436641,31.763630,-121.344310,14.289,32.951,NaN,NaN
20040328,011801,436671,31.763720,-121.344480,14.292,32.952,NaN,NaN
20040328,011831,436700,31.763880,-121.344670,14.296,32.952,NaN,NaN
20040328,011901,436731,31.763930,-121.344850,14.311,32.947,NaN,NaN
20040328,011931,436761,31.764030,-121.345010,14.305,32.943,NaN,NaN
20040328,012001,436791,31.764160,-121.345210,14.365,32.942,NaN,NaN
20040328,012031,436821,31.764270,-121.345410,14.351,32.944,NaN,NaN
20040328,012101,436851,31.764400,-121.345570,14.352,32.915,NaN,NaN
20040328,012131,436881,31.764590,-121.345740,14.354,32.941,NaN,NaN
20040328,012201,436911,31.764710,-121.345860,14.306,32.948,NaN,NaN
20040328,012231,436941,31.764850,-121.345970,14.302,32.950,NaN,NaN
20040328,012301,436971,31.765030,-121.346160,14.306,32.949,NaN,NaN
20040328,012331,437001,31.765220,-121.346360,14.290,32.952,NaN,NaN
20040328,012401,437030,31.765350,-121.346510,14.298,32.953,NaN,NaN
20040328,012431,437061,31.765460,-121.346650,14.322,32.946,NaN,NaN
20040328,012501,437091,31.765700,-121.346890,14.289,32.934,NaN,NaN
20040328,012531,437121,31.766030,-121.347140,14.287,32.936,NaN,NaN
20040328,012601,437151,31.766330,-121.347340,14.315,32.937,NaN,NaN
20040328,012631,437181,31.766650,-121.347560,14.325,32.939,NaN,NaN
20040328,012701,437210,31.766920,-121.347740,14.360,32.938,NaN,NaN
20040328,012731,437241,31.767220,-121.347970,14.396,32.944,NaN,NaN
20040328,012801,437271,31.767530,-121.348210,14.440,32.941,NaN,NaN
20040328,012831,437301,31.767900,-121.348400,14.366,32.940,NaN,NaN
20040328,012901,437331,31.768260,-121.348550,14.487,32.958,NaN,NaN
20040328,012931,437361,31.768650,-121.348680,14.580,32.921,NaN,NaN
20040328,013001,437391,31.768980,-121.348770,14.356,32.939,NaN,NaN
20040328,013031,437421,31.769350,-121.348900,14.345,32.945,NaN,NaN
20040328,013101,437451,31.769780,-121.349040,14.400,32.940,NaN,NaN
20040328,013131,437481,31.770190,-121.349190,14.457,32.936,NaN,NaN
20040328,013202,437512,31.770610,-121.349380,14.472,32.941,NaN,NaN
20040328,013232,437542,31.771030,-121.349530,14.438,32.910,NaN,NaN
20040328,013302,437572,31.771460,-121.349690,14.428,32.939,NaN,NaN
20040328,013332,437602,31.771900,-121.349890,14.724,32.945,NaN,NaN
20040328,013401,437631,31.772340,-121.350040,14.599,32.929,NaN,NaN
20040328,013431,437661,31.772820,-121.350130,14.397,32.936,NaN,NaN
20040328,013501,437691,31.773260,-121.350230,14.354,32.940,NaN,NaN
20040328,013532,437722,31.773670,-121.350320,14.329,32.936,NaN,NaN
20040328,013601,437751,31.774040,-121.350420,14.313,32.942,NaN,NaN
20040328,013631,437781,31.774450,-121.350520,14.303,32.942,NaN,NaN
20040328,013702,437812,31.774910,-121.350590,14.296,32.943,NaN,NaN
20040328,013732,437842,31.775380,-121.350720,14.280,32.938,NaN,NaN
20040328,013802,437872,31.775860,-121.350830,14.289,32.936,NaN,NaN
20040328,013831,437901,31.776370,-121.350940,14.316,32.933,NaN,NaN
20040328,013901,437931,31.776890,-121.351110,14.338,32.938,NaN,NaN
20040328,013931,437961,31.777420,-121.351210,14.310,32.934,NaN,NaN
20040328,014001,437991,31.778030,-121.351420,14.327,32.933,NaN,NaN
20040328,014032,438022,31.778770,-121.351510,14.431,32.920,NaN,NaN
20040328,014102,438052,31.779380,-121.350930,14.300,32.934,NaN,NaN
20040328,014132,438082,31.779800,-121.349840,14.253,32.942,NaN,NaN
20040328,014202,438112,31.780360,-121.348650,14.273,32.942,NaN,NaN
20040328,014232,438142,31.780940,-121.347420,14.281,32.943,NaN,NaN
20040328,014302,438172,31.781480,-121.346090,14.286,32.943,NaN,NaN
20040328,014332,438202,31.782040,-121.344750,14.281,32.946,NaN,NaN
20040328,014402,438232,31.782540,-121.343390,14.277,32.944,NaN,NaN
20040328,014432,438262,31.783170,-121.342160,14.279,32.941,NaN,NaN
20040328,014502,438291,31.783740,-121.340760,14.282,32.940,NaN,NaN
20040328,014532,438322,31.784290,-121.339300,14.273,32.941,NaN,NaN
20040328,014602,438352,31.784830,-121.337910,14.269,32.942,NaN,NaN
20040328,014632,438382,31.785380,-121.336520,14.271,32.944,NaN,NaN
20040328,014702,438412,31.785930,-121.335140,14.270,32.945,NaN,NaN
20040328,014732,438442,31.786460,-121.333720,14.276,32.948,NaN,NaN
20040328,014802,438471,31.786990,-121.332340,14.289,32.950,NaN,NaN
20040328,014833,438503,31.787600,-121.330880,14.311,32.940,NaN,NaN
20040328,014903,438533,31.788190,-121.329450,14.319,32.941,NaN,NaN
20040328,014933,438563,31.788760,-121.327960,14.326,32.945,NaN,NaN
20040328,015004,438594,31.789310,-121.326520,14.338,32.944,NaN,NaN
20040328,015033,438623,31.789800,-121.325120,14.343,32.939,NaN,NaN
20040328,015104,438654,31.790430,-121.323670,14.348,32.942,NaN,NaN
20040328,015133,438683,31.790970,-121.322290,14.350,32.946,NaN,NaN
20040328,015203,438712,31.791530,-121.320880,14.350,32.953,NaN,NaN
20040328,015234,438744,31.792140,-121.319400,14.355,32.954,NaN,NaN
20040328,015304,438774,31.792710,-121.317950,14.353,32.956,NaN,NaN
20040328,015334,438804,31.793280,-121.316530,14.355,32.959,NaN,NaN
20040328,015404,438834,31.793880,-121.315150,14.356,32.962,NaN,NaN
20040328,015434,438864,31.794500,-121.313760,14.356,32.962,NaN,NaN
20040328,015504,438894,31.795080,-121.312320,14.370,32.962,NaN,NaN
20040328,015533,438923,31.795680,-121.310870,14.355,32.963,NaN,NaN
20040328,015603,438953,31.796240,-121.309460,14.354,32.963,NaN,NaN
20040328,015633,438983,31.796810,-121.308030,14.354,32.963,NaN,NaN
20040328,015703,439013,31.797390,-121.306570,14.350,32.879,NaN,NaN
20040328,015733,439042,31.797960,-121.305140,14.348,32.962,NaN,NaN
20040328,015803,439073,31.798540,-121.303690,14.348,32.961,NaN,NaN
20040328,015833,439103,31.799140,-121.302250,14.341,32.961,NaN,NaN
20040328,015903,439133,31.799680,-121.300860,14.343,32.960,NaN,NaN
20040328,015933,439163,31.800190,-121.299470,14.343,32.960,NaN,NaN
20040328,020003,439193,31.800790,-121.298090,14.342,32.959,NaN,NaN
20040328,020033,439222,31.801330,-121.296620,14.331,32.959,NaN,NaN
20040328,020103,439253,31.801910,-121.295150,14.330,32.958,NaN,NaN
20040328,020133,439283,31.802520,-121.293730,14.328,32.958,NaN,NaN
20040328,020203,439313,31.803110,-121.292300,14.322,32.958,NaN,NaN
20040328,020233,439343,31.803700,-121.290830,14.318,32.958,NaN,NaN
20040328,020303,439373,31.804260,-121.289340,14.315,32.958,NaN,NaN
20040328,020333,439403,31.804830,-121.287940,14.310,32.958,NaN,NaN
20040328,020403,439433,31.805430,-121.286560,14.315,32.957,NaN,NaN
20040328,020433,439463,31.806010,-121.285120,14.311,32.958,NaN,NaN
20040328,020503,439493,31.806530,-121.283710,14.303,32.958,NaN,NaN
20040328,020533,439523,31.807150,-121.282320,14.310,32.958,NaN,NaN
20040328,020603,439552,31.807750,-121.280880,14.319,32.958,NaN,NaN
20040328,020633,439583,31.808320,-121.279420,14.295,32.958,NaN,NaN
20040328,020703,439613,31.808920,-121.277980,14.290,32.958,NaN,NaN
20040328,020733,439643,31.809510,-121.276550,14.289,32.958,NaN,NaN
20040328,020803,439673,31.810070,-121.275120,14.287,32.959,NaN,NaN
20040328,020833,439703,31.810660,-121.273700,14.290,32.959,NaN,NaN
20040328,020903,439732,31.811240,-121.272300,14.284,32.959,NaN,NaN
20040328,020933,439763,31.811820,-121.270860,14.285,32.959,NaN,NaN
20040328,021003,439793,31.812430,-121.269450,14.286,32.959,NaN,NaN
20040328,021033,439823,31.812960,-121.268000,14.285,32.959,NaN,NaN
20040328,021103,439853,31.813560,-121.266610,14.283,32.959,NaN,NaN
20040328,021133,439883,31.814150,-121.265220,14.282,32.959,NaN,NaN
20040328,021203,439913,31.814740,-121.263760,14.280,32.959,NaN,NaN
20040328,021233,439943,31.815300,-121.262310,14.279,32.959,NaN,NaN
20040328,021303,439973,31.815890,-121.260840,14.276,32.959,NaN,NaN
20040328,021333,440003,31.816510,-121.259410,14.276,32.959,NaN,NaN
20040328,021404,440034,31.817160,-121.257850,14.278,32.960,NaN,NaN
20040328,021434,440064,31.817750,-121.256440,14.275,32.956,NaN,NaN
20040328,021504,440094,31.818320,-121.254990,14.279,32.959,NaN,NaN
20040328,021534,440124,31.818940,-121.253580,14.274,32.960,NaN,NaN
20040328,021604,440154,31.819520,-121.252220,14.271,32.959,NaN,NaN
20040328,021634,440184,31.820090,-121.250760,14.275,32.960,NaN,NaN
20040328,021705,440214,31.820680,-121.249310,14.268,32.960,NaN,NaN
20040328,021734,440244,31.821280,-121.247860,14.266,32.960,NaN,NaN
20040328,021804,440274,31.821850,-121.246460,14.265,32.960,NaN,NaN
20040328,021834,440303,31.822440,-121.245060,14.277,32.961,NaN,NaN
20040328,021904,440334,31.823020,-121.243610,14.262,32.958,NaN,NaN
20040328,021934,440364,31.823620,-121.242160,14.259,32.960,NaN,NaN
20040328,022004,440394,31.824210,-121.240680,14.258,32.960,NaN,NaN
20040328,022034,440424,31.824870,-121.239270,14.257,32.960,NaN,NaN
20040328,022104,440454,31.825450,-121.237820,14.260,32.960,NaN,NaN
20040328,022134,440483,31.826070,-121.236370,14.260,32.960,NaN,NaN
20040328,022204,440514,31.826670,-121.234960,14.257,32.921,NaN,NaN
20040328,022234,440544,31.827250,-121.233490,14.255,32.957,NaN,NaN
20040328,022304,440574,31.827890,-121.232100,14.261,32.960,NaN,NaN
20040328,022334,440604,31.828490,-121.230690,14.267,32.960,NaN,NaN
20040328,022405,440635,31.829060,-121.229200,14.284,32.959,NaN,NaN
20040328,022435,440665,31.829680,-121.227820,14.281,32.959,NaN,NaN
20040328,022505,440695,31.830300,-121.226400,14.294,32.960,NaN,NaN
20040328,022535,440724,31.830920,-121.224930,14.291,32.958,NaN,NaN
20040328,022605,440755,31.831510,-121.223520,14.292,32.958,NaN,NaN
20040328,022634,440784,31.832110,-121.222100,14.300,32.958,NaN,NaN
20040328,022704,440813,31.832730,-121.220780,14.302,32.957,NaN,NaN
20040328,022734,440844,31.833290,-121.219410,14.301,32.957,NaN,NaN
20040328,022804,440874,31.833890,-121.217980,14.307,32.956,NaN,NaN
20040328,022834,440904,31.834490,-121.216530,14.303,32.956,NaN,NaN
20040328,022904,440934,31.835090,-121.215080,14.304,32.955,NaN,NaN
20040328,022935,440965,31.835700,-121.213650,14.306,32.955,NaN,NaN
20040328,023005,440995,31.836300,-121.212230,14.304,32.955,NaN,NaN
20040328,023035,441025,31.836940,-121.210810,14.302,32.954,NaN,NaN
20040328,023105,441055,31.837560,-121.209390,14.303,32.953,NaN,NaN
20040328,023135,441085,31.838140,-121.207900,14.305,32.952,NaN,NaN
20040328,023205,441115,31.838700,-121.206520,14.315,32.952,NaN,NaN
20040328,023234,441144,31.839350,-121.205130,14.301,32.950,NaN,NaN
20040328,023304,441174,31.839980,-121.203740,14.297,32.937,NaN,NaN
20040328,023335,441205,31.840590,-121.202310,14.315,32.949,NaN,NaN
20040328,023405,441234,31.841250,-121.200930,14.291,32.949,NaN,NaN
20040328,023435,441265,31.841860,-121.199460,14.291,32.948,NaN,NaN
20040328,023504,441294,31.842480,-121.198050,14.288,32.948,NaN,NaN
20040328,023535,441325,31.843090,-121.196570,14.288,32.948,NaN,NaN
20040328,023605,441355,31.843710,-121.195170,14.285,32.949,NaN,NaN
20040328,023635,441385,31.844310,-121.193850,14.286,32.947,NaN,NaN
20040328,023705,441415,31.844950,-121.192460,14.289,32.948,NaN,NaN
20040328,023735,441445,31.845580,-121.190990,14.286,32.947,NaN,NaN
20040328,023805,441475,31.846210,-121.189600,14.296,32.947,NaN,NaN
20040328,023835,441505,31.846770,-121.188210,14.311,32.947,NaN,NaN
20040328,023905,441535,31.847400,-121.186870,14.328,32.947,NaN,NaN
20040328,023935,441564,31.848030,-121.185480,14.340,32.948,NaN,NaN
20040328,024005,441595,31.848670,-121.184140,14.354,32.948,NaN,NaN
20040328,024035,441625,31.849300,-121.182710,14.375,32.950,NaN,NaN
20040328,024105,441655,31.849980,-121.181230,14.389,32.951,NaN,NaN
20040328,024135,441685,31.850610,-121.179860,14.405,32.951,NaN,NaN
20040328,024205,441715,31.851250,-121.178390,14.422,32.953,NaN,NaN
20040328,024235,441744,31.851920,-121.177050,14.443,32.954,NaN,NaN
20040328,024305,441775,31.852550,-121.175680,14.459,32.954,NaN,NaN
20040328,024335,441805,31.853110,-121.174250,14.478,32.953,NaN,NaN
20040328,024405,441835,31.853720,-121.172920,14.490,32.953,NaN,NaN
20040328,024435,441865,31.854300,-121.171490,14.502,32.949,NaN,NaN
20040328,024505,441895,31.854950,-121.170010,14.517,32.947,NaN,NaN
20040328,024535,441925,31.855530,-121.168540,14.514,32.945,NaN,NaN
20040328,024605,441955,31.856180,-121.167180,14.520,32.943,NaN,NaN
20040328,024635,441985,31.856800,-121.165710,14.520,32.940,NaN,NaN
20040328,024705,442015,31.857440,-121.164290,14.522,32.938,NaN,NaN
20040328,024735,442045,31.858010,-121.162900,14.524,32.938,NaN,NaN
20040328,024805,442074,31.858700,-121.161440,14.535,32.937,NaN,NaN
20040328,024835,442105,31.859370,-121.160020,14.540,32.938,NaN,NaN
20040328,024905,442135,31.859990,-121.158620,14.550,32.938,NaN,NaN
20040328,024935,442165,31.860620,-121.157200,14.570,32.940,NaN,NaN
20040328,025005,442195,31.861260,-121.155820,14.565,32.940,NaN,NaN
20040328,025035,442225,31.861800,-121.154440,14.575,32.940,NaN,NaN
20040328,025105,442255,31.862430,-121.153040,14.587,32.929,NaN,NaN
20040328,025135,442285,31.863040,-121.151690,14.593,32.941,NaN,NaN
20040328,025205,442315,31.863700,-121.150200,14.602,32.941,NaN,NaN
20040328,025235,442345,31.864280,-121.148800,14.605,32.941,NaN,NaN
20040328,025305,442375,31.864990,-121.147370,14.616,32.941,NaN,NaN
20040328,025335,442405,31.865620,-121.146000,14.617,32.927,NaN,NaN
20040328,025405,442435,31.866220,-121.144560,14.621,32.937,NaN,NaN
20040328,025435,442465,31.866910,-121.143200,14.625,32.941,NaN,NaN
20040328,025505,442495,31.867510,-121.141860,14.625,32.941,NaN,NaN
20040328,025535,442525,31.868160,-121.140390,14.629,32.941,NaN,NaN
20040328,025605,442555,31.868790,-121.138970,14.635,32.940,NaN,NaN